Regional Weather Roundup
Issued by NWS

Home | Current Version | Previous Version | Text Only | Print | Product List | Glossary On
Versions: 1 2 3 4 5 6 7 8 9 10 11 12 13 14 15 16 17 18 19 20 21 22 23 24 25 26
000
ASUS46 KPQR 140410
RWROR

OREGON REGIONAL WEATHER ROUNDUP
NATIONAL WEATHER SERVICE PORTLAND OR
800 PM PST WED DEC 13 2017

NOTE: "FAIR" INDICATES FEW OR NO CLOUDS BELOW 12,000 FEET WITH
NO SIGNIFICANT WEATHER AND/OR OBSTRUCTIONS TO VISIBILITY.

ORZ001>013-140500-
NORTHWEST OREGON


CITY           SKY/WX    TMP DP  RH WIND       PRES   REMARKS
ASTORIA        CLEAR     44  35  70 E8        30.32R
NEWPORT        CLEAR     46  32  57 NE12      30.29R
PORTLAND       CLEAR     38  29  70 SE14      30.38R WCI  30
VANCOUVER WA   CLEAR     38  31  76 E7        30.38R WCI  33
SCAPPOOSE      CLEAR     31  29  92 CALM      30.38R
HILLSBORO      CLEAR     42  29  59 E6        30.37R
AURORA         CLEAR     40  28  62 N12       30.32F WCI  33
MCMINNVILLE    CLEAR     42  29  59 N15G21    30.33S
SALEM          CLEAR     39  27  62 NW5       30.31S
CORVALLIS      CLEAR     29  27  92 CALM      30.32S
EUGENE         CLEAR     31  29  92 CALM      30.31S
$$

ORZ021-028-140500-
SOUTHWEST OREGON


CITY           SKY/WX    TMP DP  RH WIND       PRES   REMARKS
NORTH BEND     CLEAR     42  37  82 N3        30.22R
BROOKINGS      CLEAR     48  41  76 CALM      30.15S
ROSEBURG       FOG       35  35 100 CALM      30.30R VSB 1/4
SEXTON SUMMIT  CLEAR     54  25  32 SE7       30.25R
GRANTS PASS    FOG       32  30  93 CALM      30.32S VSB<1/4
MEDFORD        CLEAR     35  30  82 CALM      30.27R
$$

ORZ014>016-041-140500-
COLUMBIA GORGE


CITY           SKY/WX    TMP DP  RH WIND       PRES   REMARKS
TROUTDALE      PTCLDY    38  28  67 E31G44    30.39S WCI  25
HOOD RIVER     CLOUDY    32  27  80 NE5       30.60S WCI  27
THE DALLES     CLOUDY    35  27  72 SE6       30.63S WCI  30
$$

ORZ029>031-041-044-049-050-061>064-502-503-505>511-140500-
EASTERN OREGON


CITY           SKY/WX    TMP DP  RH WIND       PRES   REMARKS
MADRAS         CLOUDY   N/A N/A N/A CALM      30.53S
REDMOND        CLOUDY    22  21  96 CALM      30.48S FOG
BEND           FOG       21  19  93 CALM      30.47S VSB<1/4
PRINEVILLE     FOG       21  21 100 CALM      30.48S VSB 1/2
KLAMATH FALLS  PTCLDY    30  22  72 N8        30.33R WCI  22
LAKEVIEW       CLEAR     36  18  48 N14       30.35R WCI  27
HERMISTON      CLOUDY    31  29  92 S6        30.63S WCI  25
PENDLETON      CLOUDY    27  24  89 W3        30.58R
JOHN DAY       CLEAR     28  22  76 CALM      30.41S
MEACHAM        CLOUDY    20  17  88 CALM      30.44R FOG
LA GRANDE      CLOUDY    28  26  92 SW3       30.46S
BAKER CITY     MOCLDY    22  17  81 S7        30.44R WCI  13
BURNS          PTCLDY    15  13  91 NW3       30.40R
ROME             N/A     16  13  88 SE9       30.38R WCI   4
ONTARIO        CLEAR     21  19  92 W5        30.47R WCI  15
$$




USA.gov is the U.S. government's official web portal to all federal, state and local government web resources and services.